Location: Navalespino
(40.5894°N, 4.2660°W)
Time: 17:43:04
(UTC+00:00)

ATLAS 5 CENTAUR R/B - Pass Details

Date: 18 April 2024
Orbit: 420 x 1169 km, 63.3° (Epoch: 23 May)

Event Time Altitude Azimuth Distance (km) Brightness Sun altitude
Rises 19:01:39 0° 200° (SSW) 2,365 4.6 -1.2°
Reaches altitude 10° 19:03:43 10° 194° (SSW) 1,496 3.5 -1.5°
Maximum altitude 19:06:50 46° 120° (ESE) 586 1.1 -2.1°
Drops below altitude 10° 19:10:10 10° 46° (NE) 1,596 3.4 -2.7°
Sets 20:56:09 0° 21° (NNE) 2,666 5.0 -20.6°
